Flag for Western Sahara Weather past 2 weeks in Smara, Western Sahara

Now
64 °F

Passing clouds.


Feels Like: 64 °F
Forecast: 57 / 84 °F
Wind: 2 mph from Northeast

Location: Laayoune/Hassan Isl

Current Time: May 25, 2015 at 12:42:51 AM

Latest Report: May 25, 2015 at 12:00 AM


Visibility: N/A

Pressure: 30.07 "Hg

Humidity: 78%

Dew point: 57 °F

Location of SmaraLocation

Historic Weather in Smara — Graph

°F

Smara temperature yesterday

Maximum temperature yesterday: 73 °F (at 3:00 PM)
Minimum temperature yesterday: 63 °F (at 4:00 AM)
Average temperature yesterday: 67 °F

Past Weeks' High & Low Weather Summary

 TemperatureHumidityPressure
High115 °F (May 14, 3:00 PM)88% (May 10, 5:00 AM)30.12 "Hg (May 10, 5:00 AM)
Low63 °F (May 10, 5:00 AM)3% (May 13, 1:00 PM)29.83 "Hg (May 13, 5:00 PM)
Average75 °F56%30.00 "Hg
* Reported Midnight between May 9 and May 10 — May 24 11:00 PM, Smara, Weather by CustomWeather, © 2015

Note: Actual official high and low records may vary slightly from our data, if they occured in-between our weather recording intervals... More about our weather records

Advertising

Smara weather history for previous 24 hours

 ConditionsComfort  
Time TempWeatherWind HumidityBarometerVisibility
11:00 PM
Sun, May 24
64 °FPassing clouds.5 mph73%30.07 "HgN/A
10:00 PM66 °FPassing clouds.10 mph73%30.07 "HgN/A
9:00 PM66 °FPassing clouds.13 mph68%30.04 "HgN/A
8:00 PM68 °FScattered clouds.16 mph64%30.04 "HgN/A
7:00 PM70 °FScattered clouds.20 mph57%30.01 "HgN/A
6:00 PM72 °FScattered clouds.20 mph50%30.01 "HgN/A
5:00 PM73 °FScattered clouds.21 mph50%30.01 "HgN/A
4:00 PM73 °FScattered clouds.22 mph50%N/AN/A
3:00 PM73 °FScattered clouds.22 mph50%30.04 "HgN/A
2:00 PM72 °FPartly sunny.20 mph53%30.07 "HgN/A
1:00 PM72 °FPartly sunny.17 mph50%30.07 "HgN/A
12:00 PM70 °FPartly sunny.17 mph53%30.07 "HgN/A
11:00 AM68 °FBroken clouds.20 mph56%30.07 "HgN/A
10:00 AM68 °FBroken clouds.17 mph60%30.07 "HgN/A
9:00 AM66 °FPartly sunny.14 mph68%30.04 "HgN/A
8:00 AM64 °FPartly sunny.8 mph78%30.04 "HgN/A
7:00 AM63 °FPassing clouds.6 mph83%30.04 "HgN/A
6:00 AM63 °FPassing clouds.5 mph83%30.01 "Hg5 mi
5:00 AM63 °FPassing clouds.7 mph77%30.01 "Hg5 mi
4:00 AM63 °FPassing clouds.12 mph73%30.04 "Hg5 mi
2:00 AM64 °FPassing clouds.10 mph68%30.04 "Hg5 mi
1:00 AM64 °FPassing clouds.18 mph73%30.09 "Hg5 mi
12:00 AM64 °FPassing clouds.10 mph78%30.07 "Hg5 mi
Weather by CustomWeather, © 2015

See weather overviewHow to use our weather pages